This is the latest recevied weather packets stored in our database for station/object XE1GMR. If no packets are shown the sender has not sent any weather packets the latest 10 day(s).
| Time | Temp. | Humidity | Pressure | Rain* | Wind** | Luminosity | Snow |
|---|---|---|---|---|---|---|---|
| 1778248148 | 21.67° C | 57% | 1121.6 hPa | 0 mm | - | 221 W/m² | - |
| 1778247844 | 21.11° C | 56% | 1121.5 hPa | 0 mm | - | 194 W/m² | - |
| 1778247541 | 20° C | 59% | 1121.8 hPa | 0 mm | - | 184 W/m² | - |
| 1778247239 | 20° C | 60% | 1121.6 hPa | 0 mm | - | 171 W/m² | - |
| 1778246935 | 19.44° C | 61% | 1121.6 hPa | 0 mm | - | 153 W/m² | - |
| 1778246633 | 18.89° C | 62% | 1121.6 hPa | 0 mm | - | 141 W/m² | - |
| 1778246330 | 18.89° C | 62% | 1121.7 hPa | 0 mm | - | 127 W/m² | - |
| 1778246025 | 18.89° C | 62% | 1121.8 hPa | 0 mm | - | 111 W/m² | - |
| 1778245722 | 18.89° C | 63% | 1121.6 hPa | 0 mm | - | 99 W/m² | - |
| 1778245419 | 18.33° C | 63% | 1121.6 hPa | 0 mm | - | 87 W/m² | - |
| 1778245115 | 17.78° C | 64% | 1121.8 hPa | 0 mm | - | 64 W/m² | - |
| 1778244811 | 17.78° C | 64% | 1121.7 hPa | 0 mm | - | 56 W/m² | - |
| 1778244509 | 17.78° C | 65% | 1121.7 hPa | 0 mm | - | 49 W/m² | - |
| 1778244206 | 17.22° C | 66% | 1121.5 hPa | 0 mm | - | 42 W/m² | - |
| 1778243904 | 16.67° C | 67% | 1121.5 hPa | 0 mm | - | 35 W/m² | - |
| 1778243603 | 16.67° C | 68% | 1121.5 hPa | 0 mm | - | 29 W/m² | - |
| 1778243298 | 16.67° C | 68% | 1121.6 hPa | 0 mm | - | 23 W/m² | - |
| 1778242995 | 16.67° C | 69% | 1121.4 hPa | 0 mm | - | 18 W/m² | - |
| 1778242693 | 16.67° C | 69% | 1121.5 hPa | 0 mm | - | 13 W/m² | - |
| 1778242391 | 16.11° C | 69% | 1121.5 hPa | 0 mm | - | 8 W/m² | - |
| 1778242088 | 16.67° C | 69% | 1121.4 hPa | 0 mm | - | 4 W/m² | - |
| 1778241786 | 16.67° C | 69% | 1121.6 hPa | 0 mm | - | 1 W/m² | - |
| 1778241483 | 16.67° C | 70% | 1121.5 hPa | 0 mm | - | 0 W/m² | - |
| 1778241181 | 16.67° C | 69% | 1121.1 hPa | 0 mm | - | 0 W/m² | - |
| 1778240877 | 16.67° C | 69% | 1121.3 hPa | 0 mm | - | 0 W/m² | - |
* Rain latest hour (hover to see other rain measurements)
** Current wind speed in m/s (hover to see current wind gust speed)